Flag Weather past 2 weeks in Randaberg, Norway

Now
50 °F

Light rain. Overcast.


Feels Like: 47 °F
Forecast: 48 / 54 °F
Wind: 6 mph from Southeast

Location: Stavanger / Sola

Current Time: Oct 31, 2014 at 9:03:27 AM

Latest Report: Oct 31, 2014 at 8:00 AM


Visibility: 9 mi

Pressure: 30.03 "Hg

Humidity: 84%

Dew point: 45 °F

Location of RandabergLocation

Historic Weather in Randaberg — Graph

°F

Randaberg temperature yesterday

Maximum temperature yesterday: 51 °F (at 12:00 PM)
Minimum temperature yesterday: 39 °F (at 6:00 AM)
Average temperature yesterday: 45 °F

Past Weeks' High & Low Weather Summary

 TemperatureHumidityPressure
High59 °F (Oct 19, 2:00 PM)97% (Oct 18, 6:00 PM)30.20 "Hg (Oct 18, 6:00 PM)
Low34 °F (Oct 17, 2:00 AM)46% (Oct 16, 4:00 PM)29.15 "Hg (Oct 21, 4:00 PM)
Average51 °F85%29.75 "Hg
* Reported Oct 16 8:00 AM — Oct 31 7:00 AM, Randaberg, Weather by CustomWeather, © 2014

Note: Actual official high and low records may vary slightly from our data, if they occured in-between our weather recording intervals... More about our weather records

Advertising

Randaberg weather history for previous 24 hours

 ConditionsComfort  
Time TempWeatherWind HumidityBarometerVisibility
7:00 AM
Oct 31
51 °FDrizzle. Overcast.7 mph75%30.03 "Hg25 mi
6:00 AM51 °FOvercast.6 mph76%30.04 "Hg31 mi
5:00 AM50 °FOvercast.6 mph75%30.04 "Hg31 mi
4:00 AM48 °FDrizzle. Overcast.6 mph83%30.06 "Hg18 mi
3:00 AM50 °FDrizzle. Overcast.6 mph76%30.07 "Hg25 mi
2:00 AM49 °FOvercast.6 mph73%30.07 "Hg31 mi
1:00 AM48 °FDrizzle. Overcast.5 mph80%30.09 "Hg25 mi
12:00 AM47 °FRain showers. Overcast.2 mph77%30.11 "Hg31 mi
11:00 PM
Oct 30
46 °FRain showers. Overcast.3 mph80%30.12 "Hg31 mi
10:00 PM45 °FDrizzle. Overcast.6 mph82%30.14 "Hg31 mi
9:00 PM45 °FLight rain. Passing clouds.6 mph86%30.16 "Hg11 mi
8:00 PM45 °FLight rain. Passing clouds.6 mph84%30.18 "Hg15 mi
7:00 PM46 °FLight rain. Passing clouds.3 mph83%30.17 "Hg11 mi
6:00 PM48 °FLight rain. Passing clouds.3 mph76%30.18 "Hg7 mi
5:00 PM49 °FClear.3 mph73%30.16 "Hg22 mi
4:00 PM49 °FClear.3 mph74%30.17 "Hg25 mi
3:00 PM50 °FSunny.2 mph73%30.19 "Hg25 mi
2:00 PM50 °FSunny.3 mph74%30.19 "Hg25 mi
1:00 PM50 °FSunny.5 mph72%30.19 "Hg22 mi
12:00 PM51 °FSunny.3 mph72%30.20 "Hg18 mi
11:00 AM49 °FSunny.3 mph74%30.19 "Hg14 mi
10:00 AM45 °FSunny.3 mph83%30.20 "Hg18 mi
9:00 AM43 °FPassing clouds.3 mph87%30.19 "Hg22 mi
Weather by CustomWeather, © 2014

See weather overviewHow to use our weather pages